Hauptseite
METAR-TAF:

METAR-TAF

Flughäfen :

Militärflugplatz Deelen

Arnheim, Niederlande

Breite: 52-04N, Länge: 005-53E, Höhe: 48 m

Beobachtung

Neuester Wetterbericht von vor 34 Minuten, um 00:25 UTC
Wind 7 kt aus unterschiedlichen Richtungen
Temperatur 13°C
Luftfeuchtigkeit 44%
Luftdruck 1004 hPa
Sichtweite 10 km oder mehr
Aufgelockert bewölkt in der Höhe von 29000 ft

METAR: EHDL 230025Z AUTO VRB07KT 9999 SCT290 13/01 Q1004 BLU

Zeit: 02:59 (00:59 UTC)


TAF: fehlend

Wetterbeobachtungen und Prognosen von mehr als 4000 Flughäfen (METAR und TAF Bericht).

Die verfügbaren Stationen werden durch gelbe und rote Markierungen auf der Karte dargestellt.

Führen Sie die Maus auf sie, um den Namen der Station zu sehen.

Darauf klicken, um die Beobachtung von Wetterbeobachtungen und Prognosen zu sehen.

Um die Karte zu ändern : klicken Sie auf den grünen Tasten mit einem schwarzen Kreuz Zum Vergrößern, auf den grünen Button mit einem Gedankenstrich zu verkleinern, oder auf die grünen Pfeile für benachbarte Karten.


METAR-TAF: